CAPE
1 0 0 0 0 2 3 1 5 0 0 11 14 4 1 1 0 0 0 0 0 0 0 0 4 7 0 0 0 0 0 0 0 0 0 0 0 0 0 0 0 0 0 0 0 0 0
3 2 6 4 8 7 6 5 2 0 0 0 15 5 1 0 0 0 0 0 0 0 0 0 3 6 0 0 0 0 0 0 0 0 0 0 0 0 0 0 0 0 0 0 0 0 0
10 14 9 12 8 6 5 7 3 4 4 0 6 2 0 0 0 0 0 0 0 0 0 0 1 1 0 0 0 0 0 0 0 0 0 0 0 0 0 0 0 0 0 0 0 0 0
7 19 12 3 2 9 10 10 7 0 4 1 0 0 0 0 0 0 0 0 0 0 0 0 0 0 0 0 0 0 0 0 0 0 0 0 0 0 0 0 0 0 0 0 0 0 0
9 9 16 28 26 18 7 15 12 3 3 2 0 0 0 0 0 0 0 0 0 0 0 0 0 0 0 0 0 0 0 0 0 0 0 0 0 0 0 0 0 0 0 0 0 0 0
8 6 8 15 11 9 8 11 8 12 1 0 0 0 0 0 0 0 0 0 0 0 0 0 0 0 0 0 0 0 0 0 0 0 0 0 0 0 0 0 0 0 0 0 0 0 0
15 2 7 14 8 0 0 1 1 1 7 0 0 0 0 0 0 0 0 0 0 0 0 0 0 0 0 0 0 0 0 0 0 0 0 0 0 0 0 0 0 0 0 0 0 0 0
13 20 17 13 4 1 5 3 2 4 15 7 0 0 0 0 0 0 0 0 1 4 0 0 0 0 0 0 0 0 0 0 0 0 0 0 0 0 0 0 0 0 0 0 0 0 0
7 19 17 14 16 18 19 19 13 7 3 8 0 0 0 0 0 0 0 0 0 0 0 0 0 0 0 0 0 0 0 0 0 0 0 0 0 0 0 0 0 0 0 0 0 0 0
16 15 19 13 4 10 18 19 16 13 5 6 8 1 0 0 0 0 0 0 0 0 0 0 0 0 0 0 0 0 0 0 0 0 0 0 0 0 0 0 0 0 0 0 0 0 0
7 0 1 13 10 10 2 11 12 10 8 8 14 9 3 0 0 0 0 0 0 0 0 0 0 0 0 0 0 0 0 0 0 0 0 0 0 0 0 0 5 2 9 0 0 0 0
2 0 0 0 5 6 8 1 11 13 6 10 8 17 10 0 0 0 0 0 0 0 0 0 0 0 0 0 0 0 0 0 0 0 0 0 0 0 0 1 31 19 3 0 0 0 0
5 0 0 0 3 16 14 3 5 20 12 15 6 15 16 0 0 0 0 0 0 0 0 0 0 0 0 0 0 0 0 0 0 0 0 0 0 0 3 0 11 16 4 0 0 0 0
4 5 15 13 13 9 11 10 2 8 16 14 13 2 0 0 0 0 0 0 0 0 0 0 0 0 0 0 0 0 0 0 0 0 0 0 0 0 0 0 0 1 0 0 0 0 0
8 3 11 11 20 7 6 4 1 0 2 10 5 0 0 0 0 0 0 0 0 0 0 0 0 0 0 0 0 0 0 0 0 0 0 0 0 0 0 0 0 0 0 0 0 0 0
9 9 9 11 6 12 6 0 3 5 17 6 0 0 0 0 0 2 0 0 0 0 0 0 0 0 0 0 0 1 5 14 16 0 0 0 0 0 0 0 3 3 1 0 0 0 0
0 8 12 11 2 6 15 7 0 5 6 9 0 0 0 0 0 17 2 0 0 0 0 0 0 0 0 0 0 0 32 33 0 0 0 0 0 0 0 0 0 0 0 0 0 0 0
1 3 19 25 14 24 23 19 11 8 16 1 0 0 0 0 0 12 2 0 0 0 0 0 0 0 0 0 0 0 0 1 0 0 0 0 2 0 0 0 0 0 0 2 0 0 0
10 13 25 14 19 24 23 10 13 20 27 1 6 0 0 0 0 0 1 2 0 0 0 0 0 0 0 0 0 0 0 0 0 0 0 0 0 0 0 0 0 1 0 0 2 1 0
21 4 11 19 24 21 23 23 26 22 7 6 6 0 0 0 0 1 0 2 0 0 0 0 0 0 0 0 0 0 0 0 0 0 0 0 0 0 0 7 0 8 2 0 2 0 0
1 1 14 19 18 17 19 17 28 11 8 15 0 0 0 0 4 0 9 0 0 0 1 0 0 0 0 0 0 0 5 0 1 1 7 0 0 0 0 0 0 0 1 0 1 0 0
6 19 24 18 20 13 14 25 17 3 15 2 0 0 0 0 0 0 1 0 0 11 7 0 0 0 2 12 0 0 1 0 0 20 24 33 0 0 0 0 0 0 10 4 1 5 2
24 26 29 38 31 21 18 28 27 10 13 1 1 1 1 0 0 0 0 1 0 0 0 15 0 0 0 8 23 5 1 24 1 0 15 34 5 0 0 0 0 0 0 12 2 7 6
22 24 27 32 33 42 42 37 34 31 27 0 0 7 0 0 0 0 0 0 0 3 1 0 1 3 0 5 1 0 3 11 1 0 0 1 4 0 0 0 0 0 0 0 29 20 8
21 22 23 23 25 28 34 27 24 20 14 6 0 8 6 0 6 0 0 0 0 0 0 1 0 0 5 9 0 0 0 0 0 0 0 0 0 0 0 0 0 0 0 0 6 0 0
23 31 32 27 32 24 24 18 10 10 22 13 0 2 4 0 0 0 0 0 0 0 0 1 9 16 1 0 0 0 0 0 0 0 0 0 0 0 0 0 0 0 2 0 0 0 0
6 3 4 9 8 6 5 5 1 6 29 9 1 0 5 5 0 0 0 0 0 0 0 1 0 6 0 0 0 0 0 0 0 0 0 0 0 0 0 0 0 0 2 0 0 0 1
6 9 10 11 9 2 3 0 0 3 17 11 1 1 2 4 0 0 0 0 0 0 0 0 0 1 0 0 0 0 0 0 0 0 0 0 0 0 0 1 0 0 0 0 1 0 0
0 9 10 5 10 12 8 4 4 9 19 28 7 1 2 7 0 0 0 0 0 0 8 4 0 1 0 0 0 0 0 0 0 0 1 0 0 4 0 0 0 0 0 0 0 0 0
CIN
-0 -0 -0 -0 -1 -2 -0 -0 -1 -0 -0 -0 -0 -0 -0 -0 -0 -0 -0 -0 -0 -0 -0 -0 -0 -0 -0 -0 -0 -0 -0 -0 -0 -0 -0 -0 -0 -0 -0 -0 -0 -0 -0 -0 -0 -0 -0
-1 -2 -1 -1 -1 -2 -2 -4 -5 -0 -0 -0 -0 -0 -0 -0 -0 -0 -0 -0 -0 -0 -0 -0 -0 -0 -0 -0 -0 -0 -0 -0 -0 -0 -0 -0 -0 -0 -0 -0 -0 -0 -0 -0 -0 -0 -0
-0 -0 -0 -1 -2 -3 -6 -5 -5 -3 -3 -0 -0 -0 -0 -0 -0 -0 -0 -0 -0 -0 -0 -0 -0 -0 -0 -0 -0 -0 -0 -0 -0 -0 -0 -0 -0 -0 -0 -0 -0 -0 -0 -0 -0 -0 -0
-0 -1 -2 -2 -3 -1 -2 -4 -3 -0 -2 -0 -0 -0 -0 -0 -0 -0 -0 -0 -0 -0 -0 -0 -0 -0 -0 -0 -0 -0 -0 -0 -0 -0 -0 -0 -0 -0 -0 -0 -0 -0 -0 -0 -0 -0 -0
-3 -1 -1 -1 -1 -1 -2 -1 -1 -2 -2 -1 -0 -0 -0 -0 -0 -0 -0 -0 -0 -0 -0 -0 -0 -0 -0 -0 -0 -0 -0 -0 -0 -0 -0 -0 -0 -0 -0 -0 -0 -0 -0 -0 -0 -0 -0
-0 -0 -0 -0 -2 -1 -1 -0 -1 -2 -3 -0 -0 -0 -0 -0 -0 -0 -0 -0 -0 -0 -0 -0 -1 -0 -0 -0 -0 -0 -0 -0 -0 -0 -0 -0 -0 -0 -0 -0 -0 -0 -0 -0 -0 -0 -0
-0 -0 -0 -0 -0 -0 -0 -0 -0 -9 -1 -0 -0 -0 -0 -0 -0 -0 -0 -0 -0 -0 -0 -0 -0 -0 -0 -0 -0 -0 -0 -0 -0 -0 -0 -0 -0 -0 -0 -0 -0 -0 -0 -0 -0 -0 -0
-0 -0 -0 -0 -0 -0 -0 -1 -1 -2 -2 -2 -0 -0 -0 -0 -0 -0 -0 -0 -3 -5 -0 -0 -0 -0 -0 -0 -0 -0 -0 -0 -0 -0 -0 -0 -0 -0 -0 -0 -0 -0 -0 -0 -0 -0 -0
-2 -1 -0 -0 -0 -0 -0 -0 -3 -9 -11 -4 -5 -0 -0 -0 -0 -0 -0 -0 -0 -0 -0 -0 -0 -0 -0 -0 -0 -0 -0 -0 -0 -0 -0 -0 -0 -0 -0 -0 -0 -0 -0 -0 -0 -0 -0
-0 -0 -0 -0 -5 -1 -1 -3 -3 -5 -10 -8 -6 -9 -0 -0 -0 -0 -0 -0 -0 -0 -0 -0 -0 -0 -0 -0 -0 -0 -0 -0 -0 -0 -0 -0 -0 -0 -0 -0 -0 -0 -0 -0 -0 -0 -0
-0 -0 -5 -1 -0 -2 -7 -2 -4 -5 -5 -4 -4 -7 -15 -0 -0 -0 -0 -0 -0 -0 -0 -0 -0 -0 -0 -0 -0 -0 -0 -0 -0 -0 -0 -0 -0 -0 -0 -0 -3 -1 -16 -0 -0 -0 -0
-0 -0 -0 -0 -0 -0 -2 -3 -2 -0 -2 -2 -7 -5 -10 -0 -0 -0 -0 -0 -0 -0 -0 -0 -0 -0 -0 -0 -0 -0 -0 -0 -0 -0 -0 -0 -0 -0 -0 -4 -2 -7 -10 -0 -0 -0 -0
-0 -0 -0 -0 -0 -0 -0 -1 -1 -0 -1 -0 -3 -3 -2 -1 -0 -0 -0 -0 -0 -0 -0 -0 -0 -0 -0 -0 -0 -0 -0 -0 -0 -0 -0 -0 -0 -0 -18 -0 -3 -6 -19 -0 -0 -0 -0
-0 -0 -0 -0 -0 -0 -0 -0 -1 -1 -1 -2 -2 -13 -0 -0 -0 -0 -0 -0 -0 -0 -0 -0 -0 -0 -0 -0 -0 -0 -0 -0 -0 -0 -0 -0 -0 -0 -0 -0 -0 -5 -0 -0 -0 -0 -0
-0 -0 -0 -0 -0 -1 -0 -1 -3 -0 -4 -4 -4 -0 -0 -0 -0 -0 -0 -0 -0 -0 -0 -0 -0 -0 -0 -0 -0 -0 -0 -0 -0 -0 -0 -0 -0 -0 -0 -1 -0 -0 -0 -0 -0 -0 -0
-0 -0 -0 -2 -1 -1 -2 -0 -4 -3 -1 -3 -0 -0 -0 -0 -0 -14 -0 -0 -0 -0 -0 -0 -0 -0 -0 -0 -0 -8 -18 -38 -22 -0 -0 -0 -0 -0 -0 -0 -0 -0 -1 -0 -0 -0 -0
-0 -0 -1 -1 -3 -0 -1 -5 -0 -1 -2 -2 -0 -1 -0 -3 -4 -2 -0 -0 -0 -0 -0 -0 -0 -0 -0 -0 -0 -0 -8 -20 -0 -0 -0 -0 -0 -0 -0 -0 -0 -0 -0 -0 -0 -0 -0
-2 -0 -1 -0 -1 -2 -0 -0 -3 -2 -2 -0 -0 -0 -0 -0 -2 -2 -1 -1 -0 -0 -0 -0 -0 -0 -0 -0 -0 -0 -0 -11 -0 -0 -0 -0 -12 -0 -0 -0 -0 -0 -0 -0 -0 -0 -0
-2 -0 -0 -0 -0 -0 -0 -4 -2 -4 -0 -1 -1 -0 -0 -0 -0 -0 -0 -0 -0 -0 -0 -0 -0 -5 -0 -0 -0 -0 -0 -3 -0 -0 -0 -0 -0 -0 -0 -0 -1 -0 -0 -0 -4 -0 -0
-1 -1 -0 -0 -0 -1 -1 -4 -4 -4 -7 -1 -1 -0 -0 -0 -0 -1 -0 -0 -0 -0 -0 -0 -0 -0 -0 -0 -0 -0 -0 -1 -0 -0 -0 -0 -0 -0 -0 -11 -0 -8 -1 -0 -0 -0 -0
-0 -2 -0 -0 -0 -1 -3 -9 -2 -8 -8 -2 -0 -0 -0 -0 -11 -1 -1 -0 -0 -0 -1 -0 -0 -0 -0 -0 -0 -0 -6 -0 -24 -17 -27 -19 -0 -0 -0 -0 -0 -1 -4 -0 -0 -0 -0
-0 -1 -0 -0 -0 -4 -6 -4 -9 -8 -1 -0 -4 -0 -0 -0 -0 -0 -3 -0 -0 -4 -10 -0 -0 -0 -41 -20 -0 -0 -7 -0 -1 -23 -20 -36 -0 -0 -0 -0 -0 -0 -15 -6 -0 -0 -0
-0 -0 -1 -0 -2 -4 -5 -1 -2 -8 -2 -0 -0 -3 -2 -0 -0 -0 -0 -3 -0 -0 -0 -5 -0 -0 -0 -41 -26 -34 -25 -32 -13 -0 -19 -11 -12 -0 -0 -0 -0 -0 -0 -11 -2 -0 -0
-0 -0 -0 -0 -0 -0 -0 -0 -1 -3 -2 -0 -0 -3 -1 -0 -0 -0 -0 -0 -0 -1 -0 -0 -18 -3 -23 -57 -20 -0 -10 -25 -27 -0 -0 -7 -16 -4 -0 -0 -0 -0 -0 -0 -33 -15 -4
-0 -0 -0 -0 -0 -0 -0 -1 -4 -6 -5 -1 -0 -1 -2 -0 -3 -0 -0 -0 -0 -0 -0 -0 -4 -0 -16 -30 -2 -1 -0 -0 -0 -0 -0 -0 -0 -0 -0 -0 -0 -0 -0 -0 -5 -0 -0
-0 -0 -0 -1 -0 -0 -1 -5 -8 -9 -6 -5 -1 -0 -0 -0 -0 -0 -0 -0 -0 -0 -0 -1 -25 -47 -3 -0 -7 -0 -0 -0 -0 -0 -0 -0 -0 -0 -0 -0 -0 -0 -24 -0 -0 -1 -0
-0 -0 -0 -1 -1 -3 -2 -3 -7 -3 -2 -7 -2 -1 -0 -2 -0 -0 -0 -0 -0 -0 -0 -1 -0 -17 -0 -0 -0 -0 -0 -0 -0 -0 -0 -0 -0 -0 -0 -0 -0 -0 -10 -0 -0 -0 -0
-0 -0 -0 -0 -1 -3 -5 -0 -0 -1 -0 -2 -0 -6 -0 -1 -2 -0 -7 -0 -0 -0 -0 -0 -0 -0 -3 -0 -0 -0 -0 -0 -0 -0 -0 -0 -0 -0 -0 -0 -0 -0 -1 -0 -0 -0 -0
-0 -2 -1 -4 -2 -2 -1 -2 -2 -1 -0 -0 -0 -4 -6 -0 -0 -0 -0 -0 -0 -0 -2 -4 -0 -0 -0 -0 -0 -0 -0 -0 -0 -0 -21 -0 -0 -5 -0 -0 -0 -0 -7 -3 -6 -0 -0
Wind_Speed
23 24 24 25 25 26 28 29 28 30 31 32 31 32 32 34 36 38 38 39 39 38 37 37 34 32 26 26 25 22 29 29 24 16 18 18 17 17 19 16 16 20 19 25 39 44 44
23 23 24 25 26 27 28 28 29 31 31 30 31 31 33 35 37 39 40 40 40 39 37 36 32 28 23 30 18 20 22 27 21 16 20 17 19 19 19 19 16 19 20 21 44 46 42
23 25 24 24 27 28 28 28 29 30 29 30 31 32 33 35 37 40 41 41 41 41 39 36 29 24 26 27 21 25 30 21 19 19 17 17 19 18 19 19 17 23 25 41 45 39 41
23 23 24 26 28 28 26 26 28 29 29 30 31 32 34 36 39 40 41 42 42 42 38 30 22 21 27 23 24 28 22 24 19 19 16 18 18 19 13 14 21 22 23 40 38 35 41
22 25 26 27 27 25 26 27 28 30 31 30 31 32 35 37 39 40 41 42 42 39 27 17 18 20 29 25 19 22 18 19 20 19 18 19 16 18 16 14 19 21 32 39 40 38 38
23 24 24 25 25 25 26 27 28 30 29 29 31 33 35 37 39 39 40 42 34 23 18 14 18 24 23 19 20 28 21 16 18 19 19 16 15 17 15 13 15 22 35 37 40 30 33
23 23 24 23 25 25 26 28 29 30 28 29 30 33 35 37 38 37 38 28 26 25 27 27 24 24 25 22 25 26 24 17 17 17 17 16 17 19 16 14 20 33 37 39 39 33 33
23 23 23 23 24 25 25 26 27 29 30 30 30 32 34 37 38 36 26 24 28 31 38 31 25 23 22 28 31 31 22 15 14 15 17 19 20 17 14 22 36 35 38 44 38 32 31
22 22 22 23 24 25 25 27 26 27 28 29 30 31 33 37 38 23 25 28 31 30 32 32 20 18 15 6 15 21 12 11 13 15 16 19 23 19 13 28 32 30 38 36 36 35 37
20 21 22 23 24 25 26 26 26 28 30 32 31 31 32 36 23 28 21 33 34 28 34 30 18 16 10 10 17 10 6 8 14 15 17 22 22 20 17 26 23 34 35 37 40 37 39
19 21 22 24 25 26 25 25 27 28 31 32 31 29 30 29 28 25 26 35 33 21 35 19 14 9 8 9 13 14 8 9 13 16 16 20 21 22 17 25 22 30 27 27 27 33 36
22 23 25 26 26 26 27 27 28 29 31 30 30 28 28 28 25 21 31 34 21 24 32 22 14 11 11 12 14 12 10 13 16 19 22 24 21 19 20 25 24 28 29 30 31 31 42
23 24 25 26 26 26 27 28 30 32 32 30 29 28 27 24 24 27 30 23 25 28 23 20 20 15 14 16 14 10 11 12 15 20 24 27 20 12 17 24 28 30 25 28 34 41 46
24 25 25 26 26 28 28 28 29 31 31 28 28 29 26 23 22 22 23 21 31 26 26 28 26 23 18 16 17 12 13 15 16 18 23 23 22 7 12 22 22 33 22 24 35 38 38
25 27 27 26 27 26 26 28 29 30 29 28 29 29 27 24 17 15 18 28 29 25 24 26 28 23 24 22 22 14 13 18 17 13 18 21 20 13 10 13 16 20 29 30 28 28 31
26 26 26 26 27 27 27 28 29 29 28 28 29 30 29 20 12 14 22 32 28 24 24 24 24 23 25 24 21 15 14 18 15 17 18 21 24 20 12 11 20 23 17 28 26 31 33
26 27 26 27 28 25 26 26 26 27 27 26 28 32 24 20 9 18 29 30 32 29 29 26 24 26 26 23 23 21 17 14 15 19 20 21 21 20 21 16 22 26 24 24 25 24 26
28 25 25 25 25 25 24 23 24 25 25 22 25 32 18 20 20 23 27 26 27 33 27 28 28 29 27 25 24 22 19 16 13 14 18 19 21 23 22 26 16 16 22 22 29 30 27
24 23 23 24 24 24 24 22 22 22 20 20 26 28 23 16 24 23 24 26 27 34 32 26 27 24 29 27 25 23 21 18 17 17 17 19 20 23 22 22 16 21 26 25 24 25 35
22 24 23 23 23 23 22 21 21 19 17 13 19 23 21 16 18 23 23 25 25 27 31 31 34 35 34 30 28 28 27 21 22 20 17 19 21 23 23 23 22 26 23 24 25 30 32
21 21 20 21 21 20 20 19 18 17 12 8 10 15 16 17 17 25 28 24 28 29 25 27 28 33 36 33 33 33 27 28 21 22 21 21 26 25 29 31 32 30 28 33 37 36 34
19 20 20 20 18 19 18 16 14 13 11 6 9 15 20 25 29 29 29 24 29 27 30 32 30 34 31 32 30 34 28 27 24 21 20 21 24 25 27 23 27 33 33 27 32 35 38
19 19 19 18 18 18 14 13 12 11 7 10 13 18 20 22 24 27 25 22 26 27 24 25 32 33 34 31 24 26 25 25 22 23 23 23 22 24 26 26 30 33 29 31 27 27 30
19 18 18 18 17 15 12 10 7 6 6 10 14 16 18 26 21 25 28 31 32 30 28 28 29 23 24 25 25 25 26 27 29 29 25 26 25 25 29 29 33 24 28 31 29 23 25
18 17 17 16 13 12 11 9 8 5 7 9 13 15 18 24 19 22 25 29 29 29 30 30 27 25 18 24 24 28 27 27 29 33 34 29 28 27 29 29 32 30 20 20 22 24 27
18 17 15 13 10 7 4 4 5 8 5 9 7 10 16 22 25 30 28 28 29 27 25 22 23 20 16 16 20 26 27 25 24 22 24 25 27 28 26 29 29 20 22 23 22 23 22
17 16 13 9 6 5 7 8 7 6 5 4 11 4 14 20 25 27 28 26 23 24 25 22 24 23 20 18 20 22 24 21 25 24 24 21 24 33 33 33 32 28 24 23 26 20 14
17 14 9 7 9 14 19 17 11 15 15 7 5 5 6 19 28 26 22 23 25 28 22 22 18 16 21 23 22 22 23 22 22 23 23 21 22 25 27 31 36 28 26 20 13 10 4
16 11 10 14 12 16 22 22 19 17 14 13 2 3 6 19 24 23 25 34 36 35 27 22 21 20 18 18 19 21 21 21 21 24 19 21 18 20 19 23 15 16 14 12 6 4 7
Wind_Direction
324 324 324 323 325 324 323 324 323 324 325 323 322 323 321 319 316 313 311 309 307 307 307 306 311 316 323 313 307 305 298 309 318 324 321 328 319 306 293 293 279 266 267 280 270 261 260
322 323 323 322 322 323 323 324 324 324 325 324 323 323 323 320 316 310 307 305 303 302 304 304 309 316 318 305 325 321 318 312 318 319 319 326 320 322 308 295 275 287 281 275 262 258 263
322 321 321 322 320 322 322 322 322 323 324 325 321 320 321 319 317 310 305 302 300 296 298 300 306 314 309 303 315 311 304 315 318 316 316 324 329 326 319 310 302 288 283 270 256 267 264
322 324 322 320 320 321 322 323 323 325 325 323 322 321 322 320 315 310 307 300 295 289 297 301 308 313 305 311 315 306 313 306 315 317 313 315 327 323 317 314 303 289 282 262 265 270 257
325 321 321 321 323 325 325 323 321 321 320 321 322 323 322 320 318 314 307 298 293 296 308 318 314 312 303 307 316 321 326 317 315 316 316 314 321 319 317 302 295 283 270 265 262 258 259
322 322 323 321 323 326 325 324 323 321 323 325 323 321 322 321 316 312 307 300 307 319 335 328 316 306 304 308 316 311 326 325 320 317 315 316 316 309 310 284 262 274 266 261 257 268 267
320 323 324 324 325 326 325 322 322 321 324 324 324 324 324 321 316 312 314 329 327 315 314 300 301 298 302 306 311 312 315 323 322 317 313 319 308 294 284 280 277 269 259 259 252 264 268
320 321 323 326 327 326 326 326 326 325 322 324 326 327 325 321 313 310 335 336 331 317 300 304 297 290 287 293 299 299 308 313 314 309 317 317 305 308 292 283 264 263 262 248 269 262 268
325 326 326 326 326 325 326 326 327 329 330 330 330 329 328 323 307 331 329 332 326 326 308 310 312 308 313 280 303 313 310 306 313 307 309 314 318 328 298 275 267 268 259 264 264 267 269
329 329 326 324 325 325 325 327 329 328 328 325 325 327 327 322 334 325 329 321 319 333 306 308 311 315 320 329 315 314 317 310 311 304 306 309 321 325 314 275 267 264 263 257 253 259 252
328 328 326 325 326 325 327 329 329 329 328 327 327 329 330 331 324 324 326 317 316 339 300 323 326 355 342 320 333 329 332 308 306 302 306 305 320 337 312 277 269 265 268 267 265 260 256
320 321 318 319 322 325 325 327 326 328 328 328 328 329 330 330 328 326 320 314 330 309 294 307 322 315 318 310 322 335 333 320 311 297 297 297 312 328 317 279 271 266 268 260 256 256 245
314 318 319 322 324 325 325 327 326 322 324 327 329 330 329 330 323 325 320 323 304 293 317 308 303 302 300 305 309 305 309 301 306 301 296 295 299 322 316 283 263 254 261 250 247 239 234
316 321 323 325 324 323 322 326 328 328 325 327 327 326 326 321 320 323 322 309 290 300 292 312 307 296 292 311 307 286 294 301 298 297 299 296 308 331 324 281 263 243 252 244 240 238 247
317 317 322 327 327 330 331 329 329 329 328 327 326 325 324 319 318 320 306 288 292 293 304 305 301 293 292 299 290 285 280 294 299 285 292 297 306 341 342 296 259 257 243 243 252 258 253
319 323 324 327 327 328 328 329 329 328 328 328 324 322 321 321 312 308 291 287 291 290 300 302 289 294 294 296 297 280 287 297 291 300 283 291 297 309 325 310 262 259 270 243 249 248 247
324 325 327 327 327 326 328 329 330 329 328 329 324 318 323 328 313 290 279 288 292 289 288 286 281 283 291 291 293 291 293 298 300 291 297 285 290 298 299 296 266 255 255 254 253 257 253
323 327 329 330 331 330 329 329 330 329 329 331 323 313 326 334 283 287 280 292 293 287 287 278 275 277 278 286 280 283 287 293 300 306 291 292 290 292 290 280 311 261 259 258 251 246 253
327 328 328 330 330 329 329 328 329 329 329 328 319 315 318 311 289 282 287 289 287 284 280 276 268 272 275 273 275 277 283 283 286 291 293 295 289 289 296 279 280 274 264 258 260 258 246
325 326 327 331 330 329 328 328 328 329 332 330 328 323 325 314 289 293 296 289 287 291 279 270 265 265 267 264 271 269 269 275 278 284 294 298 286 283 281 273 281 271 269 261 257 253 251
324 328 329 329 329 330 329 326 327 329 333 347 347 331 324 313 303 287 280 285 286 284 286 276 265 258 258 261 265 261 268 269 284 281 283 285 279 283 277 275 272 274 271 260 253 252 253
324 327 329 329 328 327 327 330 329 325 329 327 333 323 307 285 274 271 269 278 275 286 272 266 266 262 263 258 260 259 267 265 269 279 281 285 281 283 279 284 279 263 258 274 259 253 251
322 323 324 324 324 326 328 327 324 323 319 318 315 306 303 292 282 274 277 282 278 286 266 267 265 260 258 258 267 266 270 268 274 273 276 278 278 281 274 283 279 259 264 262 270 262 258
320 321 322 323 322 320 317 314 311 302 303 301 309 307 302 285 293 282 274 268 269 270 266 265 259 277 264 268 268 269 269 269 266 267 270 271 274 278 273 280 257 275 284 270 260 265 264
317 319 320 320 320 319 315 311 307 287 291 295 299 298 295 287 294 286 281 275 274 275 274 268 263 260 281 264 262 261 263 266 267 263 260 265 269 271 270 270 272 276 287 284 272 267 269
318 317 317 318 316 310 289 293 307 308 293 297 288 295 293 287 283 274 276 280 271 272 277 275 258 271 274 277 259 255 255 261 265 274 266 267 265 263 268 268 263 280 289 295 297 265 264
314 315 313 307 287 226 199 191 187 185 186 275 297 239 290 290 280 276 275 277 278 269 271 286 274 259 268 270 261 260 257 268 263 268 274 278 270 257 260 263 266 277 287 290 262 265 275
314 312 298 247 224 210 208 204 204 191 184 174 293 216 263 289 272 274 280 279 265 247 251 263 262 277 263 260 261 263 264 266 272 280 281 278 272 267 265 264 262 280 280 282 281 280 309
309 303 233 219 216 212 215 212 207 199 194 180 214 216 264 282 276 283 285 236 241 239 244 248 251 266 269 259 263 262 265 269 275 272 286 296 280 280 276 274 298 315 288 297 280 264 274